Torna al catalogo

STARLINK-30972

AttivoComunicazioniVLEO
NORAD 58721·PAYLOAD·🇺🇸 United States

Lanciato Jan 3, 2024 da Vandenberg Space Force Base

Loading…

Prossimi Passaggi (prossime 24 ore)

TLE

AggiornatoSource: CelesTrak SupGP

Epoca: Sep 15, 2026, 03:04 UTC

1 58721C 24002S   26258.12826389 -.00029026  00000+0 -85769-3 0  2589
2 58721  53.1588  68.6179 0001149  87.0513 103.2288 15.34401769    16

Traccia STARLINK-30972 in tempo reale con AllMySat

Download on the App Store